Regional Weather Roundup
Issued by NWS

Home | Current Version | Previous Version | Graphics & Text | Print | Product List | Glossary On
Versions: 1 2 3 4 5 6 7 8 9 10 11 12 13 14 15 16 17 18 19 20 21 22 23 24 25 26 27 28 29 30 31 32 33 34 35 36 37 38 39 40 41 42 43 44 45 46 47 48 49 50
000
ASUS45 KABQ 271501
RWRNM
NEW MEXICO REGIONAL WEATHER ROUNDUP
NATIONAL WEATHER SERVICE ALBUQUERQUE NM
900 AM MDT THU JUL 27 2017

NOTE: "FAIR" MEANS FEW OR NO CLOUDS BELOW 12,000 FEET AGL WITH NO
       SIGNIFICANT WEATHER OR OBSTRUCTIONS TO VISION.

      THIS PRODUCT IS RELEASED AS TWO VERSIONS.  ONE VERSION NEAR
      THE TOP OF THE HOUR CONTAINING PRELIMINARY DATA FROM ALBUQUERQUE
      AND OTHER STATIONS.  A FINAL VERSION WITH ADDITIONAL DATA IS
      ISSUED ABOUT 10 MINUTES AFTER THE HOUR.

NMZ501-503-504-510>518-271600-
NORTHWEST PLATEAU/NORTHCENTRAL MOUNTAINS

CITY           SKY/WX    TMP DP  RH WIND       PRES   REMARKS
FARMINGTON     FAIR      73  56  54 E3        30.24R
LOS ALAMOS     FAIR      67  55  65 S10       30.41R
SANTA FE       FAIR      71  59  65 S16       30.34R
TAOS           FAIR      66  52  59 CALM      30.39R
ANGEL FIRE     CLOUDY    58  54  87 CALM      30.50R

$$
NMZ402-403-502-505>509-271600-
WESTCENTRAL MOUNTAINS/SOUTHWEST MOUNTAINS

CITY           SKY/WX    TMP DP  RH WIND       PRES   REMARKS
GALLUP         FAIR      71  55  56 CALM      30.32R
GRANTS         FAIR      70  54  56 CALM      30.35R
SILVER CITY    FAIR      74  60  60 NW8       30.21S

$$
NMZ407-409-411-412-271600-
SOUTHERN DESERTS

CITY           SKY/WX    TMP DP  RH WIND       PRES   REMARKS
DEMING         FAIR      75  66  73 SE3       30.15R
LAS CRUCES     FAIR      79  63  56 N7        30.17R
ALAMOGORDO     FAIR      77  63  61 CALM      30.16R
T OR C         LGT RAIN  71  64  78 N5        30.20S

$$
NMZ519>523-271600-
CENTRAL VALLEYS/CENTRAL HIGHLANDS

CITY           SKY/WX    TMP DP  RH WIND       PRES   REMARKS
ALBUQUERQUE    PTSUNNY   74  60  61 CALM      30.28R
DOUBLE EAGLE   PTSUNNY   73  59  60 SW3       30.31R
CLINES CORNERS CLOUDY    63  55  75 SW13      30.40R
BELEN          NOT AVBL
SOCORRO        FAIR      75  62  64 SE10      30.22R

$$
NMZ524>526-539-540-271600-
SOUTHCENTRAL MOUNTAINS

CITY           SKY/WX    TMP DP  RH WIND       PRES   REMARKS
RUIDOSO        FAIR      68  54  60 N7        30.38S

$$
NMZ527>531-271600-
NORTHEAST HIGHLANDS/NORTHEAST PLAINS

CITY           SKY/WX    TMP DP  RH WIND       PRES   REMARKS
LAS VEGAS      CLOUDY    64  58  80 N8        30.40R
RATON          PTSUNNY   65  63  93 S7        30.34R
CLAYTON        FAIR      64  64 100 W7        30.25F

$$
NMZ532>537-271600-
EASTCENTRAL PLAINS

CITY           SKY/WX    TMP DP  RH WIND       PRES   REMARKS
SANTA ROSA     PTSUNNY   73  65  74 NE10      30.25R
TUCUMCARI      FAIR      76  63  64 E8        30.19R
CANNON AFB     PTSUNNY   75  64  68 NW3       30.22R
CLOVIS AIRPORT FAIR      75  64  68 VRB3      30.22R

$$
NMZ028-029-538-271600-
SOUTHEAST PLAINS

CITY           SKY/WX    TMP DP  RH WIND       PRES   REMARKS
ROSWELL        FAIR      79  58  48 SE6       30.14R
ARTESIA        FAIR      79  59  50 E6        30.13S
CARLSBAD       FAIR      78  61  55 CALM      30.10R
HOBBS          MOSUNNY   79  61  53 SE9       30.15S


$$



USA.gov is the U.S. government's official web portal to all federal, state and local government web resources and services.